Location: Beddau
(51.5575°N, 3.3561°W)
Time: 02:00:49
(UTC+00:00)

Cosmos 1943 Rocket - Pass Details

Date: 03 March 2021
Orbit: 811 x 844 km, 71.0° (Epoch: 13 April)

Event Time Altitude Azimuth Distance (km) Brightness Sun altitude
Rises 22:24:53 0° 329° (NNW) 3,416 6.3 -38.5°
Reaches altitude 10° 22:27:21 10° 328° (NNW) 2,477 5.3 -38.8°
Enters shadow 22:29:48 27° 326° (NW) 1,581 4.0 -39.0°
